THA944 VTBS-LIRF

Flight info

Callsign THA944
Flight time N/A
Altitude 34000
Route TARED1E TARED G463 BETNO N895 PTN P646 DOPID DCT CEA R460 BBN/N0512F360 R460 LKN M890 SULOM T400 PS/N0501F370 P500 ATROL/N0503F360 P500 GERRY/N0501F370 P500 MOTMO/N0502F360 P500 FIRUZ/K0928F360 Z407 VAJEN Z767 DAROW/K0919F380 L181 BUTRA Z407 USETU Z514 OGNOB Y92 BUPOR T388 POGON/N0495F380 A477 BABUM A909 TUGTA B701 LARGI N701 BAKUV L850 ADEKI DCT BADIR DCT LAGAS DCT FOQUS DCT SARPI UM10 GOKPA/N0503F400 UM10 TIVUG UL852 NEGEM DCT DOLAP DCT RAMAP DCT NILKU DCT SIPAL DCT VELUG/N0508F330 DCT ESODU DCT ASPIR DCT MOPUV
Aircraft B748/H-SDE3FGHIM1M2RWXY/C

Departure

Time N/A
Airport Suvarnabhumi Airport (VTBS)

Arrival

Time 2026-05-06 02:59
Airport Rome–Fiumicino Leonardo da Vinci International Airport (LIRF)
Time Latitude Longitude Altitude Speed Heading
2026-05-05 22:29 39.89622 58.24940 42925 ft 484 kts 269°
2026-05-05 22:30 39.89530 58.16184 42925 ft 484 kts 269°
2026-05-05 22:30 39.89462 58.07434 42925 ft 484 kts 269°
2026-05-05 22:31 39.89390 57.98676 42925 ft 484 kts 269°
2026-05-05 22:31 39.89306 57.89966 42926 ft 484 kts 269°
2026-05-05 22:32 39.89221 57.81232 42928 ft 482 kts 269°
2026-05-05 22:32 39.89126 57.72513 42926 ft 481 kts 269°
2026-05-05 22:33 39.89027 57.63794 42929 ft 482 kts 269°
2026-05-05 22:33 39.88919 57.55070 42929 ft 482 kts 269°
2026-05-05 22:34 39.88806 57.46341 42929 ft 482 kts 268°
2026-05-05 22:34 39.88685 57.37611 42930 ft 482 kts 268°
2026-05-05 22:35 39.88559 57.28879 42931 ft 483 kts 268°
2026-05-05 22:35 39.88425 57.20138 42902 ft 482 kts 268°
2026-05-05 22:36 39.88285 57.11397 42904 ft 483 kts 268°
2026-05-05 22:36 39.88139 57.02654 42902 ft 483 kts 268°
2026-05-05 22:37 39.87985 56.93896 42903 ft 484 kts 268°
2026-05-05 22:37 39.87825 56.85131 42908 ft 484 kts 268°
2026-05-05 22:38 39.87658 56.76363 42909 ft 485 kts 268°
2026-05-05 22:38 39.87485 56.67589 42949 ft 486 kts 268°
2026-05-05 22:39 39.87304 56.58796 42949 ft 486 kts 268°
2026-05-05 22:39 39.87117 56.50007 42948 ft 485 kts 267°
2026-05-05 22:40 39.86926 56.41211 42951 ft 486 kts 267°
2026-05-05 22:40 39.86723 56.32406 42954 ft 487 kts 267°
2026-05-05 22:41 39.86515 56.23591 42952 ft 487 kts 267°
2026-05-05 22:41 39.86304 56.14779 42952 ft 487 kts 267°
2026-05-05 22:42 39.86103 56.05960 42954 ft 488 kts 267°
2026-05-05 22:42 39.85867 55.97127 42954 ft 488 kts 266°
2026-05-05 22:43 39.85655 55.88319 42954 ft 487 kts 267°
2026-05-05 22:43 39.85411 55.79522 42950 ft 486 kts 267°
2026-05-05 22:44 39.85177 55.70729 42950 ft 486 kts 267°
2026-05-05 22:44 39.84928 55.61941 42952 ft 486 kts 267°
2026-05-05 22:45 39.84681 55.53215 42955 ft 486 kts 266°
2026-05-05 22:45 39.84421 55.44382 42950 ft 485 kts 267°
2026-05-05 22:46 39.84155 55.35670 42929 ft 485 kts 266°
2026-05-05 22:46 39.83885 55.26909 42929 ft 484 kts 266°
2026-05-05 22:47 39.83607 55.18157 42930 ft 484 kts 266°
2026-05-05 22:47 39.83323 55.09422 42930 ft 483 kts 266°
2026-05-05 22:48 39.83040 55.00683 42931 ft 483 kts 267°
2026-05-05 22:48 39.82810 54.91951 42931 ft 483 kts 266°
2026-05-05 22:49 39.82542 54.83234 42932 ft 482 kts 266°
2026-05-05 22:49 39.82685 54.74527 42971 ft 485 kts 281°
2026-05-05 22:50 39.84539 54.66069 42944 ft 486 kts 284°
2026-05-05 22:50 39.86301 54.57582 42942 ft 485 kts 283°
2026-05-05 22:51 39.88112 54.49118 42942 ft 485 kts 283°
2026-05-05 22:51 39.89491 54.40546 42926 ft 484 kts 276°
2026-05-05 22:52 39.90431 54.31874 42936 ft 484 kts 276°
2026-05-05 22:52 39.91391 54.23197 42940 ft 484 kts 276°
2026-05-05 22:53 39.92326 54.14525 42942 ft 484 kts 276°
2026-05-05 22:53 39.93265 54.05850 42942 ft 484 kts 276°
2026-05-05 22:54 39.94192 53.97168 42944 ft 484 kts 276°
2026-05-05 22:54 39.95116 53.88491 42944 ft 484 kts 276°
2026-05-05 22:55 39.96031 53.79808 42944 ft 484 kts 276°
2026-05-05 22:55 39.96787 53.72592 42943 ft 484 kts 276°
2026-05-05 22:56 39.97692 53.63902 42944 ft 484 kts 276°
2026-05-05 22:56 39.98740 53.53749 42945 ft 483 kts 276°
2026-05-05 22:57 39.99480 53.46530 42945 ft 483 kts 276°
2026-05-05 22:57 40.00364 53.37838 42945 ft 484 kts 275°
2026-05-05 22:58 40.01387 53.27706 42941 ft 485 kts 275°
2026-05-05 22:58 40.02120 53.20391 42942 ft 486 kts 275°
2026-05-05 22:59 40.02989 53.11652 42942 ft 486 kts 275°
2026-05-05 22:59 40.03851 53.02909 42942 ft 486 kts 275°
2026-05-05 23:00 40.05807 52.89947 42940 ft 488 kts 279°
2026-05-05 23:00 40.07178 52.81264 42942 ft 489 kts 279°
2026-05-05 23:01 40.08547 52.72579 42943 ft 488 kts 279°
2026-05-05 23:01 40.09908 52.63884 42944 ft 488 kts 279°
2026-05-05 23:02 40.11263 52.55190 42945 ft 489 kts 279°
2026-05-05 23:02 40.12611 52.46493 42945 ft 489 kts 279°
2026-05-05 23:03 40.13954 52.37785 42944 ft 489 kts 278°
2026-05-05 23:03 40.15290 52.29074 42945 ft 489 kts 278°
2026-05-05 23:04 40.16619 52.20368 42945 ft 489 kts 278°
2026-05-05 23:04 40.17941 52.11651 42946 ft 489 kts 278°
2026-05-05 23:05 40.19258 52.02928 42946 ft 489 kts 278°
2026-05-05 23:05 40.20568 51.94207 42946 ft 489 kts 278°
2026-05-05 23:06 40.21871 51.85480 42946 ft 489 kts 278°
2026-05-05 23:06 40.23159 51.76808 42947 ft 489 kts 278°
2026-05-05 23:07 40.24450 51.68071 42946 ft 489 kts 278°
2026-05-05 23:07 40.25734 51.59330 42946 ft 489 kts 278°
2026-05-05 23:08 40.27014 51.50572 42946 ft 490 kts 278°
2026-05-05 23:08 40.28288 51.41807 42947 ft 490 kts 278°
2026-05-05 23:09 40.29557 51.33031 42946 ft 491 kts 278°
2026-05-05 23:09 40.30820 51.24246 42947 ft 491 kts 278°
2026-05-05 23:10 40.32079 51.15443 42947 ft 492 kts 278°
2026-05-05 23:10 40.33331 51.06631 42947 ft 492 kts 278°
2026-05-05 23:11 40.34582 50.97808 42947 ft 492 kts 278°
2026-05-05 23:11 40.35816 50.88981 42954 ft 491 kts 277°
2026-05-05 23:12 40.37049 50.80194 42942 ft 490 kts 278°
2026-05-05 23:12 40.38268 50.71417 42938 ft 489 kts 277°
2026-05-05 23:13 40.39470 50.62633 42943 ft 489 kts 278°
2026-05-05 23:13 40.40688 50.53854 42943 ft 490 kts 277°
2026-05-05 23:14 40.41885 50.45055 42943 ft 490 kts 277°
2026-05-05 23:14 40.43079 50.36251 42945 ft 490 kts 277°
2026-05-05 23:15 40.44264 50.27448 42945 ft 490 kts 277°
2026-05-05 23:15 40.45450 50.18640 42963 ft 490 kts 277°
2026-05-05 23:16 40.46621 50.09830 42960 ft 490 kts 277°
2026-05-05 23:16 40.48487 50.01220 42988 ft 497 kts 291°
2026-05-05 23:17 40.51342 49.92965 42964 ft 496 kts 290°
2026-05-05 23:17 40.54055 49.84634 42978 ft 496 kts 290°
2026-05-05 23:18 40.56850 49.76328 42968 ft 497 kts 290°
2026-05-05 23:18 40.59596 49.67980 42972 ft 497 kts 290°
2026-05-05 23:19 40.62361 49.59631 42975 ft 498 kts 290°
2026-05-05 23:19 40.64962 49.51193 42961 ft 498 kts 288°
2026-05-05 23:20 40.67523 49.42716 42961 ft 498 kts 288°
2026-05-05 23:20 40.70031 49.34267 42967 ft 499 kts 288°
2026-05-05 23:21 40.72570 49.25748 42963 ft 499 kts 288°
2026-05-05 23:21 40.74796 49.17095 42961 ft 498 kts 285°
2026-05-05 23:22 40.76955 49.08402 42963 ft 499 kts 285°
2026-05-05 23:22 40.79108 48.99700 42974 ft 499 kts 285°
2026-05-05 23:23 40.81253 48.90989 42966 ft 499 kts 285°
2026-05-05 23:23 40.83395 48.82266 42979 ft 500 kts 285°
2026-05-05 23:24 40.85531 48.73532 42968 ft 500 kts 285°
2026-05-05 23:24 40.87662 48.64791 42971 ft 500 kts 285°
2026-05-05 23:25 40.89786 48.56038 42978 ft 500 kts 285°
2026-05-05 23:25 40.91906 48.47274 42977 ft 501 kts 285°
2026-05-05 23:26 40.94019 48.38500 42972 ft 501 kts 285°
2026-05-05 23:26 40.96126 48.29721 42981 ft 501 kts 285°
2026-05-05 23:27 40.98227 48.20935 42984 ft 501 kts 285°
2026-05-05 23:27 41.00324 48.12133 42979 ft 501 kts 285°
2026-05-05 23:28 41.02413 48.03328 42976 ft 501 kts 284°
2026-05-05 23:28 41.04496 47.94517 42974 ft 502 kts 284°
2026-05-05 23:29 41.06501 47.85661 42977 ft 502 kts 283°
2026-05-05 23:29 41.08433 47.76750 42971 ft 503 kts 283°
2026-05-05 23:30 41.10326 47.67838 42975 ft 503 kts 283°
2026-05-05 23:30 41.12226 47.58910 42980 ft 503 kts 283°
2026-05-05 23:31 41.14101 47.50047 42974 ft 503 kts 283°
2026-05-05 23:31 41.15983 47.41111 42973 ft 503 kts 283°
2026-05-05 23:32 41.17860 47.32173 42986 ft 503 kts 283°
2026-05-05 23:32 41.19729 47.23225 42981 ft 503 kts 283°
2026-05-05 23:33 41.21593 47.14269 42993 ft 503 kts 283°
2026-05-05 23:33 41.23449 47.05306 42997 ft 504 kts 283°
2026-05-05 23:34 41.25302 46.96323 43005 ft 504 kts 283°
2026-05-05 23:34 41.27149 46.87330 43014 ft 504 kts 282°
2026-05-05 23:35 41.28988 46.78337 43014 ft 504 kts 282°
2026-05-05 23:35 41.30480 46.69246 43033 ft 503 kts 278°
2026-05-05 23:36 41.31762 46.60099 43034 ft 503 kts 278°
2026-05-05 23:36 41.33041 46.50947 43035 ft 504 kts 278°
2026-05-05 23:37 41.34312 46.41774 43036 ft 504 kts 278°
2026-05-05 23:37 41.35578 46.32598 43023 ft 504 kts 278°
2026-05-05 23:38 41.36835 46.23411 43022 ft 505 kts 278°
2026-05-05 23:38 41.38079 46.14280 43014 ft 505 kts 277°
2026-05-05 23:39 41.39333 46.05011 43016 ft 505 kts 277°
2026-05-05 23:39 41.40564 45.95855 43006 ft 506 kts 277°
2026-05-05 23:40 41.41796 45.86631 43003 ft 506 kts 277°
2026-05-05 23:40 41.43022 45.77395 42992 ft 506 kts 277°
2026-05-05 23:41 41.44241 45.68153 42995 ft 507 kts 277°
2026-05-05 23:41 41.45453 45.58900 42997 ft 507 kts 277°
2026-05-05 23:42 41.46659 45.49637 43001 ft 507 kts 277°
2026-05-05 23:42 41.47858 45.40369 42998 ft 507 kts 277°
2026-05-05 23:43 41.48801 45.31081 42996 ft 503 kts 274°
2026-05-05 23:43 41.49556 45.21812 42986 ft 502 kts 274°
2026-05-05 23:44 41.50314 45.12551 42991 ft 502 kts 274°
2026-05-05 23:44 41.50931 45.04852 42987 ft 502 kts 274°
2026-05-05 23:45 41.51674 44.95578 42986 ft 503 kts 274°
2026-05-05 23:45 41.52406 44.86300 42990 ft 503 kts 274°
2026-05-05 23:46 41.53133 44.77010 42984 ft 503 kts 274°
2026-05-05 23:46 41.53852 44.67714 42991 ft 504 kts 274°
2026-05-05 23:47 41.54565 44.58403 42987 ft 504 kts 274°
2026-05-05 23:47 41.55271 44.49085 42984 ft 505 kts 274°
2026-05-05 23:48 41.55969 44.39764 42989 ft 505 kts 274°
2026-05-05 23:48 41.56662 44.30414 42987 ft 507 kts 274°
2026-05-05 23:49 41.57212 44.21041 43016 ft 505 kts 269°
2026-05-05 23:49 41.57228 44.11632 42991 ft 507 kts 268°
2026-05-05 23:50 41.57258 44.02202 42983 ft 508 kts 268°
2026-05-05 23:50 41.57268 43.92755 42982 ft 509 kts 268°
2026-05-05 23:51 41.57278 43.83294 42991 ft 510 kts 268°
2026-05-05 23:51 41.57275 43.73887 42983 ft 511 kts 268°
2026-05-05 23:52 41.57267 43.64398 42990 ft 511 kts 268°
2026-05-05 23:52 41.57251 43.54905 42994 ft 512 kts 268°
2026-05-05 23:53 41.57226 43.45389 42989 ft 512 kts 268°
2026-05-05 23:53 41.57194 43.35871 42988 ft 513 kts 268°
2026-05-05 23:54 41.57154 43.26335 42993 ft 514 kts 268°
2026-05-05 23:54 41.57106 43.16788 42993 ft 514 kts 268°
2026-05-05 23:55 41.57050 43.07236 42992 ft 515 kts 268°
2026-05-05 23:55 41.56986 42.97679 42995 ft 515 kts 268°
2026-05-05 23:56 41.56914 42.88114 42993 ft 515 kts 268°
2026-05-05 23:56 41.56834 42.78549 42993 ft 515 kts 268°
2026-05-05 23:57 41.56746 42.68972 42997 ft 516 kts 268°
2026-05-05 23:57 41.56650 42.59391 42999 ft 516 kts 268°
2026-05-05 23:58 41.56546 42.49800 42998 ft 517 kts 268°
2026-05-05 23:58 41.56434 42.40201 43015 ft 517 kts 268°
2026-05-05 23:59 41.56314 42.30607 43025 ft 517 kts 268°
2026-05-05 23:59 41.56186 42.21014 43025 ft 517 kts 268°
2026-05-06 00:00 41.56050 42.11412 43030 ft 517 kts 267°
2026-05-06 00:00 41.55906 42.01807 43035 ft 518 kts 267°
2026-05-06 00:01 41.55754 41.92205 43035 ft 518 kts 267°
2026-05-06 00:01 41.55595 41.82656 43044 ft 518 kts 267°
2026-05-06 00:02 41.55427 41.73046 43045 ft 518 kts 267°
2026-05-06 00:02 41.55250 41.63418 43047 ft 519 kts 267°
2026-05-06 00:03 41.55066 41.53784 43049 ft 519 kts 267°
2026-05-06 00:03 41.54940 41.44145 43065 ft 520 kts 273°
2026-05-06 00:04 41.55500 41.34524 43050 ft 520 kts 273°
2026-05-06 00:04 41.56052 41.24896 43054 ft 520 kts 273°
2026-05-06 00:05 41.56868 41.10442 43056 ft 520 kts 273°
2026-05-06 00:06 41.57399 41.00803 43054 ft 521 kts 273°
2026-05-06 00:06 41.57925 40.91159 43055 ft 521 kts 273°
2026-05-06 00:07 41.58442 40.81510 43056 ft 521 kts 273°
2026-05-06 00:07 41.58952 40.71859 43056 ft 521 kts 273°
2026-05-06 00:08 41.59453 40.62201 43053 ft 521 kts 273°
2026-05-06 00:08 41.59947 40.52539 43054 ft 521 kts 273°
2026-05-06 00:09 41.60433 40.42869 43054 ft 522 kts 273°
2026-05-06 00:09 41.60911 40.33196 43055 ft 522 kts 272°
2026-05-06 00:10 41.61381 40.23517 43055 ft 522 kts 272°
2026-05-06 00:10 41.61843 40.13838 43056 ft 522 kts 272°
2026-05-06 00:11 41.62297 40.04152 43056 ft 522 kts 272°
2026-05-06 00:11 41.62743 39.94461 43054 ft 523 kts 272°
2026-05-06 00:12 41.63181 39.84758 43054 ft 523 kts 272°
2026-05-06 00:12 41.63611 39.75056 43056 ft 523 kts 272°
2026-05-06 00:13 41.64033 39.65351 43057 ft 523 kts 272°
2026-05-06 00:13 41.64447 39.55648 43054 ft 523 kts 272°
2026-05-06 00:14 41.64852 39.45935 43055 ft 523 kts 272°
2026-05-06 00:14 41.65248 39.36218 43056 ft 523 kts 272°
2026-05-06 00:15 41.65637 39.26503 43056 ft 523 kts 272°
2026-05-06 00:15 41.66017 39.16783 43057 ft 523 kts 272°
2026-05-06 00:16 41.66390 39.07064 43057 ft 523 kts 272°
2026-05-06 00:16 41.66751 38.97407 43057 ft 523 kts 272°
2026-05-06 00:17 41.67108 38.87678 43057 ft 524 kts 272°
2026-05-06 00:17 41.67455 38.77956 43059 ft 524 kts 272°
2026-05-06 00:18 41.67795 38.68224 43057 ft 524 kts 272°
2026-05-06 00:18 41.68127 38.58490 43057 ft 524 kts 272°
2026-05-06 00:19 41.68450 38.48756 43057 ft 524 kts 272°
2026-05-06 00:19 41.68766 38.39017 43060 ft 524 kts 271°
2026-05-06 00:20 41.69073 38.29272 43057 ft 524 kts 271°
2026-05-06 00:20 41.69372 38.19523 43064 ft 524 kts 271°
2026-05-06 00:21 41.69663 38.09773 43064 ft 525 kts 271°
2026-05-06 00:21 41.69946 38.00023 43069 ft 525 kts 271°
2026-05-06 00:22 41.70220 37.90267 43071 ft 525 kts 271°
2026-05-06 00:22 41.70487 37.80504 43069 ft 525 kts 271°
2026-05-06 00:23 41.70745 37.70737 43070 ft 525 kts 271°
2026-05-06 00:23 41.70995 37.60974 43073 ft 525 kts 271°
2026-05-06 00:24 41.71235 37.51208 43073 ft 525 kts 271°
2026-05-06 00:24 41.71468 37.41448 43071 ft 525 kts 271°
2026-05-06 00:25 41.71690 37.31748 43075 ft 525 kts 271°
2026-05-06 00:25 41.71906 37.21988 43075 ft 525 kts 271°
2026-05-06 00:26 41.72114 37.12226 43075 ft 525 kts 271°
2026-05-06 00:26 41.72313 37.02463 43073 ft 525 kts 271°
2026-05-06 00:27 41.72504 36.92698 43072 ft 525 kts 271°
2026-05-06 00:27 41.72687 36.82934 43075 ft 525 kts 271°
2026-05-06 00:28 41.72862 36.73161 43074 ft 525 kts 271°
2026-05-06 00:28 41.73029 36.63386 43075 ft 525 kts 271°
2026-05-06 00:29 41.73187 36.53605 43072 ft 526 kts 271°
2026-05-06 00:29 41.73337 36.43825 43074 ft 526 kts 271°
2026-05-06 00:30 41.73479 36.34032 43073 ft 526 kts 271°
2026-05-06 00:30 41.73612 36.24235 43074 ft 526 kts 270°
2026-05-06 00:31 41.73737 36.14503 43073 ft 527 kts 270°
2026-05-06 00:31 41.73854 36.04698 43076 ft 527 kts 270°
2026-05-06 00:32 41.73963 35.94891 43076 ft 527 kts 270°
2026-05-06 00:32 41.74048 35.86673 43072 ft 527 kts 270°
2026-05-06 00:33 41.74141 35.76863 43075 ft 527 kts 270°
2026-05-06 00:33 41.74226 35.67124 43077 ft 527 kts 270°
2026-05-06 00:34 41.74302 35.57320 43073 ft 526 kts 270°
2026-05-06 00:34 41.74371 35.47531 43074 ft 526 kts 270°
2026-05-06 00:35 41.74431 35.37740 43073 ft 526 kts 270°
2026-05-06 00:35 41.74483 35.27954 43071 ft 525 kts 270°
2026-05-06 00:36 41.74526 35.18177 43069 ft 525 kts 270°
2026-05-06 00:36 41.74561 35.08406 43072 ft 525 kts 270°
2026-05-06 00:37 41.74588 34.98643 43070 ft 524 kts 270°
2026-05-06 00:37 41.74606 34.88879 43072 ft 524 kts 270°
2026-05-06 00:38 41.74617 34.79131 43073 ft 524 kts 270°
2026-05-06 00:38 41.74619 34.69384 43071 ft 523 kts 270°
2026-05-06 00:39 41.74613 34.59636 43073 ft 523 kts 270°
2026-05-06 00:39 41.74597 34.49893 43071 ft 523 kts 270°
2026-05-06 00:40 41.74573 34.40216 43072 ft 523 kts 270°
2026-05-06 00:40 41.74541 34.30472 43071 ft 523 kts 269°
2026-05-06 00:41 41.74500 34.20731 43073 ft 523 kts 269°
2026-05-06 00:41 41.74451 34.10984 43062 ft 523 kts 269°
2026-05-06 00:42 41.74394 34.01239 43059 ft 523 kts 269°
2026-05-06 00:42 41.74329 33.91498 43060 ft 523 kts 269°
2026-05-06 00:43 41.74256 33.81759 43060 ft 523 kts 269°
2026-05-06 00:43 41.74174 33.72018 43059 ft 523 kts 269°
2026-05-06 00:44 41.74085 33.62277 43059 ft 523 kts 269°
2026-05-06 00:44 41.73986 33.52538 43051 ft 523 kts 269°
2026-05-06 00:45 41.73880 33.42800 43051 ft 523 kts 269°
2026-05-06 00:45 41.73766 33.33067 43052 ft 523 kts 269°
2026-05-06 00:46 41.73643 33.23342 43052 ft 522 kts 269°
2026-05-06 00:46 41.73513 33.13617 43052 ft 522 kts 269°
2026-05-06 00:47 41.73450 33.03898 43070 ft 522 kts 275°
2026-05-06 00:47 41.75141 32.94487 43071 ft 522 kts 290°
2026-05-06 00:48 41.77792 32.85437 43066 ft 522 kts 290°
2026-05-06 00:48 41.79944 32.76209 43065 ft 522 kts 286°
2026-05-06 00:49 41.82213 32.66964 43065 ft 522 kts 289°
2026-05-06 00:49 41.84465 32.57706 43061 ft 522 kts 287°
2026-05-06 00:50 41.86686 32.48421 43064 ft 523 kts 288°
2026-05-06 00:50 41.88926 32.39139 43068 ft 523 kts 287°
2026-05-06 00:51 41.91129 32.29843 43067 ft 523 kts 288°
2026-05-06 00:51 41.93386 32.20563 43067 ft 523 kts 287°
2026-05-06 00:52 41.95571 32.11241 43061 ft 523 kts 288°
2026-05-06 00:52 41.97787 32.01931 43062 ft 523 kts 287°
2026-05-06 00:53 41.99973 31.92600 43061 ft 523 kts 287°
2026-05-06 00:53 42.02164 31.83275 43066 ft 523 kts 287°
2026-05-06 00:54 42.04348 31.73940 43066 ft 523 kts 287°
2026-05-06 00:54 42.06522 31.64607 43062 ft 523 kts 287°
2026-05-06 00:55 42.08690 31.55262 43065 ft 523 kts 287°
2026-05-06 00:55 42.10849 31.45912 43063 ft 522 kts 287°
2026-05-06 00:56 42.12999 31.36569 43069 ft 522 kts 287°
2026-05-06 00:56 42.15138 31.27227 43065 ft 522 kts 287°
2026-05-06 00:57 42.17270 31.17878 43062 ft 521 kts 287°
2026-05-06 00:57 42.19379 31.08592 43067 ft 521 kts 287°
2026-05-06 00:58 42.21491 30.99250 43063 ft 521 kts 287°
2026-05-06 00:58 42.23595 30.89908 43069 ft 520 kts 287°
2026-05-06 00:59 42.25690 30.80562 43064 ft 520 kts 287°
2026-05-06 00:59 42.27774 30.71225 43062 ft 519 kts 287°
2026-05-06 01:00 42.29850 30.61889 43059 ft 519 kts 287°
2026-05-06 01:00 42.31916 30.52552 43059 ft 519 kts 287°
2026-05-06 01:01 42.33973 30.43220 43063 ft 518 kts 287°
2026-05-06 01:01 42.36022 30.33882 43066 ft 518 kts 287°
2026-05-06 01:02 42.38062 30.24544 43063 ft 517 kts 287°
2026-05-06 01:02 42.40092 30.15210 43065 ft 517 kts 287°
2026-05-06 01:03 42.42116 30.05865 43061 ft 517 kts 287°
2026-05-06 01:03 42.44132 29.96514 43064 ft 517 kts 287°
2026-05-06 01:04 42.46131 29.87165 43068 ft 517 kts 284°
2026-05-06 01:04 42.47677 29.77656 43057 ft 517 kts 283°
2026-05-06 01:05 42.49204 29.68141 43058 ft 517 kts 283°
2026-05-06 01:05 42.50722 29.58621 43063 ft 517 kts 282°
2026-05-06 01:06 42.52221 29.49152 43059 ft 517 kts 282°
2026-05-06 01:06 42.53725 29.39619 43064 ft 517 kts 282°
2026-05-06 01:07 42.56566 29.21435 43064 ft 517 kts 282°
2026-05-06 01:08 42.58045 29.11887 43063 ft 517 kts 282°
2026-05-06 01:08 42.59516 29.02339 43067 ft 517 kts 282°
2026-05-06 01:09 42.60979 28.92788 43063 ft 517 kts 282°
2026-05-06 01:09 42.62433 28.83237 43061 ft 517 kts 282°
2026-05-06 01:10 42.63879 28.73680 43061 ft 516 kts 282°
2026-05-06 01:10 42.65316 28.64133 43049 ft 516 kts 282°
2026-05-06 01:11 42.66744 28.54583 43050 ft 516 kts 282°
2026-05-06 01:11 42.68165 28.45024 43050 ft 516 kts 282°
2026-05-06 01:12 42.69567 28.35532 43050 ft 516 kts 282°
2026-05-06 01:12 42.70971 28.25973 43050 ft 515 kts 282°
2026-05-06 01:13 42.72366 28.16418 43050 ft 515 kts 282°
2026-05-06 01:13 42.73752 28.06859 43050 ft 515 kts 282°
2026-05-06 01:14 42.75818 27.92511 43051 ft 515 kts 281°
2026-05-06 01:14 42.77182 27.82956 43051 ft 515 kts 281°
2026-05-06 01:15 42.78540 27.73389 43051 ft 515 kts 281°
2026-05-06 01:15 42.79890 27.63822 43051 ft 515 kts 281°
2026-05-06 01:16 42.81232 27.54244 43052 ft 515 kts 281°
2026-05-06 01:16 42.82565 27.44668 43051 ft 515 kts 281°
2026-05-06 01:17 42.83891 27.35085 43052 ft 515 kts 281°
2026-05-06 01:17 42.85209 27.25501 43052 ft 515 kts 281°
2026-05-06 01:18 42.86518 27.15913 43053 ft 515 kts 281°
2026-05-06 01:18 42.87818 27.06327 43052 ft 514 kts 281°
2026-05-06 01:19 42.89103 26.96799 43052 ft 514 kts 281°
2026-05-06 01:19 42.90388 26.87202 43052 ft 514 kts 281°
2026-05-06 01:20 42.91664 26.77603 43052 ft 514 kts 281°
2026-05-06 01:20 42.92933 26.68002 43053 ft 514 kts 281°
2026-05-06 01:21 42.94193 26.58398 43041 ft 514 kts 281°
2026-05-06 01:21 42.95445 26.48793 43041 ft 514 kts 281°
2026-05-06 01:22 42.96689 26.39180 43041 ft 514 kts 280°
2026-05-06 01:22 42.97925 26.29572 43042 ft 514 kts 280°
2026-05-06 01:23 42.99152 26.19958 43032 ft 514 kts 280°
2026-05-06 01:23 43.00371 26.10345 43032 ft 514 kts 280°
2026-05-06 01:24 43.01583 26.00719 43032 ft 514 kts 280°
2026-05-06 01:24 43.02785 25.91098 43033 ft 513 kts 280°
2026-05-06 01:25 43.03980 25.81479 43021 ft 513 kts 280°
2026-05-06 01:25 43.05165 25.71861 43023 ft 513 kts 280°
2026-05-06 01:26 43.06342 25.62236 43024 ft 513 kts 280°
2026-05-06 01:26 43.07511 25.52613 43024 ft 513 kts 280°
2026-05-06 01:27 43.08664 25.43053 43024 ft 513 kts 280°
2026-05-06 01:27 43.09817 25.33427 43024 ft 513 kts 279°
2026-05-06 01:28 43.10960 25.23802 43024 ft 513 kts 279°
2026-05-06 01:28 43.12096 25.14170 43023 ft 513 kts 279°
2026-05-06 01:29 43.13224 25.04535 43029 ft 512 kts 279°
2026-05-06 01:29 43.14343 24.94901 43033 ft 512 kts 279°
2026-05-06 01:30 43.15454 24.85266 43034 ft 512 kts 279°
2026-05-06 01:30 43.16557 24.75628 43034 ft 512 kts 279°
2026-05-06 01:31 43.17651 24.65993 43047 ft 512 kts 279°
2026-05-06 01:31 43.18737 24.56353 43052 ft 512 kts 279°
2026-05-06 01:32 43.19815 24.46712 43052 ft 512 kts 279°
2026-05-06 01:32 43.20884 24.37070 43052 ft 512 kts 279°
2026-05-06 01:33 43.21946 24.27418 43052 ft 512 kts 279°
2026-05-06 01:33 43.22999 24.17767 43052 ft 512 kts 279°
2026-05-06 01:34 43.24044 24.08117 43052 ft 512 kts 279°
2026-05-06 01:34 43.25074 23.98525 43052 ft 512 kts 279°
2026-05-06 01:35 43.26103 23.88868 43053 ft 511 kts 279°
2026-05-06 01:35 43.27122 23.79215 43065 ft 511 kts 279°
2026-05-06 01:36 43.28133 23.69567 43065 ft 511 kts 279°
2026-05-06 01:36 43.29136 23.59914 43064 ft 511 kts 278°
2026-05-06 01:37 43.30130 23.50262 43062 ft 511 kts 278°
2026-05-06 01:37 43.31116 23.40609 43063 ft 510 kts 278°
2026-05-06 01:38 43.32093 23.30962 43064 ft 510 kts 278°
2026-05-06 01:38 43.33062 23.21310 43059 ft 510 kts 278°
2026-05-06 01:39 43.34022 23.11659 43066 ft 510 kts 278°
2026-05-06 01:39 43.34974 23.02014 43067 ft 510 kts 278°
2026-05-06 01:40 43.35917 22.92364 43060 ft 509 kts 278°
2026-05-06 01:40 43.36851 22.82724 43060 ft 509 kts 278°
2026-05-06 01:41 43.37554 22.73047 43053 ft 509 kts 273°
2026-05-06 01:41 43.37829 22.63340 43053 ft 508 kts 273°
2026-05-06 01:42 43.38125 22.53962 43056 ft 508 kts 273°
2026-05-06 01:42 43.38403 22.44263 43056 ft 508 kts 272°
2026-05-06 01:43 43.38682 22.34574 43056 ft 507 kts 272°
2026-05-06 01:43 43.38949 22.24879 43056 ft 507 kts 272°
2026-05-06 01:44 43.39208 22.15193 43053 ft 507 kts 272°
2026-05-06 01:44 43.39460 22.05513 43053 ft 507 kts 272°
2026-05-06 01:45 43.39702 21.95830 43052 ft 506 kts 272°
2026-05-06 01:45 43.39937 21.86168 43052 ft 506 kts 272°
2026-05-06 01:46 43.40163 21.76499 43052 ft 505 kts 272°
2026-05-06 01:46 43.40381 21.66841 43052 ft 505 kts 272°
2026-05-06 01:47 43.40590 21.57188 43051 ft 505 kts 272°
2026-05-06 01:47 43.40790 21.47611 43050 ft 504 kts 272°
2026-05-06 01:48 43.40983 21.37973 43050 ft 504 kts 272°
2026-05-06 01:48 43.41168 21.28347 43049 ft 504 kts 272°
2026-05-06 01:49 43.41345 21.18720 43049 ft 503 kts 272°
2026-05-06 01:49 43.41513 21.09105 43047 ft 503 kts 272°
2026-05-06 01:50 43.41673 20.99489 43042 ft 502 kts 272°
2026-05-06 01:50 43.41824 20.89905 43040 ft 502 kts 271°
2026-05-06 01:51 43.41631 20.80307 43039 ft 501 kts 269°
2026-05-06 01:51 43.41418 20.70735 43039 ft 501 kts 269°
2026-05-06 01:52 43.41179 20.61171 43037 ft 500 kts 269°
2026-05-06 01:52 43.40944 20.51619 43037 ft 499 kts 268°
2026-05-06 01:53 43.40694 20.42077 43035 ft 499 kts 268°
2026-05-06 01:53 43.40441 20.32550 43034 ft 498 kts 268°
2026-05-06 01:54 43.40179 20.23095 43033 ft 498 kts 268°
2026-05-06 01:54 43.39909 20.13587 43030 ft 497 kts 268°
2026-05-06 01:55 43.39631 20.04095 43029 ft 497 kts 268°
2026-05-06 01:55 43.39346 19.94612 43042 ft 496 kts 268°
2026-05-06 01:56 43.39054 19.85146 43040 ft 495 kts 268°
2026-05-06 01:56 43.38753 19.75687 43039 ft 495 kts 268°
2026-05-06 01:57 43.38446 19.66239 43054 ft 494 kts 268°
2026-05-06 01:57 43.38131 19.56803 43050 ft 494 kts 268°
2026-05-06 01:58 43.37809 19.47385 43048 ft 493 kts 268°
2026-05-06 01:58 43.37479 19.37972 43047 ft 493 kts 268°
2026-05-06 01:59 43.37142 19.28575 43046 ft 492 kts 268°
2026-05-06 01:59 43.36798 19.19188 43061 ft 491 kts 268°
2026-05-06 02:00 43.36506 19.11395 43063 ft 491 kts 268°
2026-05-06 02:00 43.36148 19.02023 43060 ft 491 kts 268°
2026-05-06 02:01 43.35783 18.92661 43059 ft 490 kts 267°
2026-05-06 02:01 43.35411 18.83307 43058 ft 490 kts 267°
2026-05-06 02:02 43.35031 18.73966 43061 ft 490 kts 267°
2026-05-06 02:02 43.34232 18.64686 43048 ft 489 kts 261°
2026-05-06 02:03 43.33079 18.55477 43051 ft 489 kts 261°
2026-05-06 02:03 43.31940 18.46275 43052 ft 489 kts 261°
2026-05-06 02:04 43.30782 18.37086 43051 ft 488 kts 261°
2026-05-06 02:04 43.29625 18.27906 43052 ft 488 kts 261°
2026-05-06 02:05 43.28455 18.18727 43051 ft 488 kts 261°
2026-05-06 02:05 43.27284 18.09568 43050 ft 487 kts 261°
2026-05-06 02:06 43.26104 18.00421 43049 ft 487 kts 261°
2026-05-06 02:06 43.24917 17.91274 43050 ft 487 kts 261°
2026-05-06 02:07 43.23724 17.82140 43050 ft 486 kts 261°
2026-05-06 02:07 43.22526 17.73021 43050 ft 486 kts 260°
2026-05-06 02:08 43.21320 17.63906 43049 ft 486 kts 260°
2026-05-06 02:08 43.20108 17.54801 43049 ft 485 kts 260°
2026-05-06 02:09 43.18890 17.45714 43048 ft 485 kts 260°
2026-05-06 02:09 43.17666 17.36633 43048 ft 485 kts 260°
2026-05-06 02:10 43.16435 17.27559 43048 ft 484 kts 260°
2026-05-06 02:10 43.15197 17.18494 43047 ft 484 kts 260°
2026-05-06 02:11 43.13954 17.09443 43046 ft 484 kts 260°
2026-05-06 02:11 43.12731 17.00386 43045 ft 483 kts 261°
2026-05-06 02:12 43.11548 16.91400 43044 ft 483 kts 260°
2026-05-06 02:12 43.10323 16.82364 43044 ft 483 kts 260°
2026-05-06 02:13 43.09109 16.73331 43044 ft 482 kts 260°
2026-05-06 02:13 43.07878 16.64311 43043 ft 482 kts 260°
2026-05-06 02:14 43.06647 16.55298 43032 ft 482 kts 260°
2026-05-06 02:14 43.05406 16.46296 43033 ft 482 kts 260°
2026-05-06 02:15 43.04160 16.37298 43032 ft 481 kts 260°
2026-05-06 02:15 43.02907 16.28308 43032 ft 481 kts 260°
2026-05-06 02:16 43.01647 16.19325 43023 ft 481 kts 259°
2026-05-06 02:16 43.00381 16.10351 43022 ft 481 kts 259°
2026-05-06 02:17 42.99109 16.01388 43022 ft 481 kts 259°
2026-05-06 02:17 42.97830 15.92426 43022 ft 480 kts 259°
2026-05-06 02:18 42.96545 15.83479 43023 ft 480 kts 259°
2026-05-06 02:18 42.95255 15.74542 43022 ft 480 kts 259°
2026-05-06 02:19 42.93957 15.65610 43022 ft 480 kts 259°
2026-05-06 02:19 42.92654 15.56687 43021 ft 479 kts 259°
2026-05-06 02:20 42.90503 15.43380 43041 ft 479 kts 249°
2026-05-06 02:21 42.87322 15.35399 43017 ft 480 kts 239°
2026-05-06 02:21 42.84011 15.27508 43006 ft 479 kts 243°
2026-05-06 02:22 42.80786 15.19624 43007 ft 480 kts 241°
2026-05-06 02:22 42.77470 15.11750 43005 ft 479 kts 242°
2026-05-06 02:23 42.74201 15.03851 42995 ft 479 kts 241°
2026-05-06 02:23 42.70889 14.95982 42976 ft 479 kts 241°
2026-05-06 02:23 42.69234 14.92015 42626 ft 487 kts 241°
2026-05-06 02:24 42.67534 14.87956 41976 ft 500 kts 241°
2026-05-06 02:24 42.65803 14.83850 41412 ft 501 kts 241°
2026-05-06 02:24 42.64076 14.79758 40850 ft 498 kts 241°
2026-05-06 02:24 42.62357 14.75678 40279 ft 496 kts 241°
2026-05-06 02:25 42.60648 14.71622 39700 ft 494 kts 241°
2026-05-06 02:25 42.58942 14.67590 39136 ft 491 kts 241°
2026-05-06 02:25 42.57241 14.63581 38547 ft 490 kts 241°
2026-05-06 02:25 42.55547 14.59582 37955 ft 489 kts 241°
2026-05-06 02:26 42.53851 14.55580 37387 ft 489 kts 241°
2026-05-06 02:26 42.52152 14.51586 36773 ft 489 kts 241°
2026-05-06 02:26 42.50448 14.47591 36157 ft 490 kts 241°
2026-05-06 02:26 42.48733 14.43570 35526 ft 496 kts 241°
2026-05-06 02:27 42.47002 14.39496 34880 ft 502 kts 240°
2026-05-06 02:27 42.45246 14.35393 34200 ft 505 kts 240°
2026-05-06 02:27 42.43477 14.31271 33505 ft 507 kts 240°
2026-05-06 02:27 42.41722 14.27132 32805 ft 509 kts 241°
2026-05-06 02:28 42.39976 14.22982 32074 ft 510 kts 241°
2026-05-06 02:28 42.38199 14.18792 31318 ft 512 kts 241°
2026-05-06 02:28 42.36410 14.14610 30538 ft 513 kts 241°
2026-05-06 02:28 42.34629 14.10437 29749 ft 511 kts 241°
2026-05-06 02:29 42.32864 14.06295 28947 ft 506 kts 241°
2026-05-06 02:29 42.31140 14.02253 28166 ft 499 kts 241°
2026-05-06 02:29 42.29416 13.98232 27388 ft 491 kts 241°
2026-05-06 02:29 42.27723 13.94285 26629 ft 482 kts 241°
2026-05-06 02:30 42.26055 13.90398 25871 ft 474 kts 241°
2026-05-06 02:30 42.24419 13.86584 25138 ft 466 kts 241°
2026-05-06 02:30 42.22807 13.82838 24396 ft 458 kts 241°
2026-05-06 02:30 42.21220 13.79153 23654 ft 451 kts 241°
2026-05-06 02:31 42.19655 13.75527 22938 ft 444 kts 241°
2026-05-06 02:31 42.18335 13.71815 22238 ft 435 kts 249°
2026-05-06 02:31 42.17276 13.68025 21543 ft 429 kts 250°
2026-05-06 02:31 42.16231 13.64296 20866 ft 423 kts 249°
2026-05-06 02:32 42.15192 13.60621 20192 ft 417 kts 249°
2026-05-06 02:32 42.14164 13.56999 19537 ft 411 kts 249°
2026-05-06 02:32 42.13152 13.53419 18865 ft 407 kts 249°
2026-05-06 02:32 42.12154 13.49881 18285 ft 400 kts 249°
2026-05-06 02:33 42.11175 13.46442 18080 ft 386 kts 249°
2026-05-06 02:33 42.10546 13.44236 17988 ft 376 kts 249°
2026-05-06 02:33 42.08458 13.36898 17691 ft 345 kts 249°
2026-05-06 02:34 42.07615 13.33936 17567 ft 333 kts 249°
2026-05-06 02:34 42.06797 13.31075 17452 ft 323 kts 249°
2026-05-06 02:34 42.05987 13.28309 17339 ft 313 kts 244°
2026-05-06 02:34 42.04929 13.25805 17168 ft 305 kts 239°
2026-05-06 02:35 42.03828 13.23355 16754 ft 307 kts 238°
2026-05-06 02:35 42.02726 13.20899 16429 ft 305 kts 239°
2026-05-06 02:35 42.01656 13.18488 16317 ft 296 kts 239°
2026-05-06 02:35 42.00616 13.16139 16201 ft 289 kts 239°
2026-05-06 02:36 41.99597 13.13844 16074 ft 282 kts 240°
2026-05-06 02:36 41.98777 13.11495 15979 ft 277 kts 245°
2026-05-06 02:36 41.97950 13.09111 15980 ft 283 kts 244°
2026-05-06 02:36 41.97111 13.06722 15985 ft 283 kts 245°
2026-05-06 02:37 41.96293 13.04351 15981 ft 283 kts 245°
2026-05-06 02:37 41.95468 13.01948 15987 ft 283 kts 245°
2026-05-06 02:37 41.94641 12.99553 15991 ft 283 kts 245°
2026-05-06 02:37 41.93810 12.97153 15985 ft 283 kts 245°
2026-05-06 02:38 41.92982 12.94758 15984 ft 283 kts 245°
2026-05-06 02:38 41.92153 12.92363 15988 ft 283 kts 244°
2026-05-06 02:38 41.91340 12.89957 15980 ft 283 kts 251°
2026-05-06 02:38 41.91093 12.87354 16007 ft 285 kts 271°
2026-05-06 02:39 41.91376 12.84745 16005 ft 280 kts 290°
2026-05-06 02:39 41.92438 12.82589 16017 ft 281 kts 317°
2026-05-06 02:39 41.94081 12.81163 15997 ft 283 kts 331°
2026-05-06 02:39 41.95823 12.79956 16003 ft 281 kts 329°
2026-05-06 02:40 41.97461 12.78526 15997 ft 280 kts 319°
2026-05-06 02:40 41.98898 12.76775 16001 ft 278 kts 313°
2026-05-06 02:40 42.00288 12.74953 15997 ft 279 kts 315°
2026-05-06 02:40 42.01730 12.73212 16001 ft 279 kts 317°
2026-05-06 02:41 42.03199 12.71498 15997 ft 279 kts 317°
2026-05-06 02:41 42.04652 12.69766 15997 ft 279 kts 316°
2026-05-06 02:41 42.06097 12.68020 15997 ft 279 kts 316°
2026-05-06 02:41 42.07545 12.66277 15998 ft 279 kts 316°
2026-05-06 02:42 42.08995 12.64538 15998 ft 279 kts 316°
2026-05-06 02:42 42.10446 12.62796 15998 ft 279 kts 316°
2026-05-06 02:42 42.11895 12.61055 16000 ft 279 kts 316°
2026-05-06 02:42 42.13346 12.59309 16000 ft 279 kts 316°
2026-05-06 02:43 42.14793 12.57563 16000 ft 279 kts 316°
2026-05-06 02:43 42.16241 12.55819 16000 ft 280 kts 316°
2026-05-06 02:43 42.17695 12.54073 16000 ft 280 kts 316°
2026-05-06 02:43 42.19142 12.52325 15972 ft 280 kts 316°
2026-05-06 02:44 42.20607 12.50548 15635 ft 288 kts 316°
2026-05-06 02:44 42.22155 12.48679 15254 ft 310 kts 316°
2026-05-06 02:44 42.23823 12.46659 14828 ft 335 kts 316°
2026-05-06 02:44 42.25592 12.44519 14374 ft 344 kts 316°
2026-05-06 02:45 42.27374 12.42371 13904 ft 343 kts 316°
2026-05-06 02:45 42.29143 12.40226 13441 ft 341 kts 316°
2026-05-06 02:45 42.30901 12.38087 12991 ft 339 kts 316°
2026-05-06 02:45 42.32651 12.35971 12549 ft 337 kts 316°
2026-05-06 02:46 42.33804 12.34572 12256 ft 336 kts 316°
2026-05-06 02:46 42.36102 12.31775 11677 ft 335 kts 316°
2026-05-06 02:46 42.37823 12.29672 11249 ft 333 kts 316°
2026-05-06 02:46 42.39530 12.27569 10702 ft 333 kts 311°
2026-05-06 02:47 42.40788 12.24928 9878 ft 339 kts 290°
2026-05-06 02:47 42.41269 12.21806 9071 ft 344 kts 269°
2026-05-06 02:47 42.41079 12.19656 8831 ft 338 kts 254°
2026-05-06 02:47 42.40117 12.16850 8690 ft 324 kts 233°
2026-05-06 02:48 42.38504 12.14803 8420 ft 317 kts 211°
2026-05-06 02:48 42.35756 12.13701 7967 ft 314 kts 181°
2026-05-06 02:48 42.34300 12.13926 7741 ft 312 kts 168°
2026-05-06 02:48 42.32189 12.14584 7169 ft 314 kts 174°
2026-05-06 02:49 42.29989 12.14702 6399 ft 316 kts 181°
2026-05-06 02:49 42.27839 12.14691 5622 ft 302 kts 180°
2026-05-06 02:49 42.25786 12.14826 4933 ft 288 kts 175°
2026-05-06 02:49 42.23862 12.15085 4585 ft 268 kts 174°
2026-05-06 02:50 42.22075 12.15289 4332 ft 248 kts 175°
2026-05-06 02:50 42.20414 12.15442 4138 ft 231 kts 176°
2026-05-06 02:50 42.18886 12.15579 3964 ft 215 kts 176°
2026-05-06 02:50 42.17422 12.15727 3814 ft 201 kts 175°
2026-05-06 02:51 42.16092 12.15862 3744 ft 190 kts 176°
2026-05-06 02:51 42.14754 12.15994 3674 ft 191 kts 175°
2026-05-06 02:51 42.13428 12.16129 3565 ft 191 kts 176°
2026-05-06 02:51 42.12105 12.16261 3453 ft 190 kts 176°
2026-05-06 02:52 42.10786 12.16390 3352 ft 190 kts 175°
2026-05-06 02:52 42.09471 12.16487 3203 ft 189 kts 182°
2026-05-06 02:52 42.08159 12.16453 3098 ft 189 kts 175°
2026-05-06 02:52 42.06882 12.16838 2985 ft 188 kts 165°
2026-05-06 02:53 42.05622 12.17322 3009 ft 190 kts 163°
2026-05-06 02:53 42.04372 12.17844 3006 ft 188 kts 162°
2026-05-06 02:53 42.03121 12.18367 3002 ft 188 kts 162°
2026-05-06 02:53 42.01914 12.18889 2987 ft 172 kts 163°
2026-05-06 02:54 42.00846 12.19334 2956 ft 149 kts 163°
2026-05-06 02:54 41.99874 12.19742 2614 ft 151 kts 162°
2026-05-06 02:54 41.98895 12.20150 2492 ft 143 kts 162°
2026-05-06 02:54 41.97911 12.20563 2500 ft 148 kts 163°
2026-05-06 02:55 41.96929 12.20983 2503 ft 149 kts 162°
2026-05-06 02:55 41.95952 12.21392 2350 ft 145 kts 162°
2026-05-06 02:55 41.95001 12.21787 2149 ft 140 kts 163°
2026-05-06 02:55 41.94073 12.22177 1977 ft 140 kts 163°
2026-05-06 02:56 41.93147 12.22571 1790 ft 139 kts 161°
2026-05-06 02:56 41.92222 12.22960 1618 ft 139 kts 162°
2026-05-06 02:56 41.91301 12.23346 1425 ft 138 kts 162°
2026-05-06 02:56 41.90381 12.23730 1257 ft 138 kts 162°
2026-05-06 02:57 41.89465 12.24115 1059 ft 138 kts 162°
2026-05-06 02:57 41.88551 12.24494 877 ft 137 kts 162°
2026-05-06 02:57 41.87640 12.24883 691 ft 137 kts 162°
2026-05-06 02:57 41.86730 12.25260 515 ft 137 kts 162°
2026-05-06 02:58 41.85820 12.25642 319 ft 137 kts 162°
2026-05-06 02:58 41.84937 12.26017 85 ft 133 kts 162°
2026-05-06 02:58 41.84083 12.26380 26 ft 118 kts 162°
2026-05-06 02:58 41.83532 12.26619 26 ft 52 kts 163°
2026-05-06 02:59 41.83241 12.26675 24 ft 29 kts 191°
2026-05-06 02:59 41.83085 12.26622 23 ft 22 kts 191°
2026-05-06 02:59 41.82938 12.26583 23 ft 21 kts 191°
2026-05-06 02:59 41.82826 12.26582 22 ft 14 kts 172°
2026-05-06 03:00 41.82734 12.26610 21 ft 14 kts 166°
2026-05-06 03:00 41.82642 12.26643 21 ft 14 kts 163°
2026-05-06 03:00 41.82547 12.26681 25 ft 15 kts 163°
2026-05-06 03:00 41.82445 12.26722 23 ft 16 kts 163°
2026-05-06 03:01 41.82338 12.26765 21 ft 17 kts 163°
2026-05-06 03:01 41.82224 12.26811 23 ft 18 kts 163°
2026-05-06 03:01 41.82104 12.26860 20 ft 18 kts 163°
2026-05-06 03:01 41.81983 12.26914 21 ft 18 kts 160°
2026-05-06 03:02 41.81863 12.26973 21 ft 18 kts 160°
2026-05-06 03:02 41.81742 12.27028 22 ft 19 kts 161°
2026-05-06 03:02 41.81617 12.27085 23 ft 18 kts 163°
2026-05-06 03:02 41.81491 12.27133 23 ft 19 kts 164°
2026-05-06 03:03 41.81361 12.27182 22 ft 20 kts 164°
2026-05-06 03:03 41.81227 12.27235 22 ft 20 kts 163°
2026-05-06 03:03 41.81092 12.27291 23 ft 20 kts 162°
2026-05-06 03:03 41.80959 12.27342 24 ft 17 kts 175°
2026-05-06 03:04 41.80845 12.27333 22 ft 16 kts 189°
2026-05-06 03:04 41.80733 12.27310 22 ft 15 kts 191°
2026-05-06 03:04 41.80681 12.27272 22 ft 5 kts 227°
2026-05-06 03:04 41.80663 12.27237 26 ft 4 kts 241°
2026-05-06 03:05 41.80651 12.27205 24 ft 2 kts 248°
2026-05-06 03:05 41.80638 12.27161 22 ft 11 kts 248°
2026-05-06 03:05 41.80595 12.27015 23 ft 21 kts 249°
2026-05-06 03:05 41.80540 12.26823 25 ft 22 kts 249°
2026-05-06 03:06 41.80485 12.26632 26 ft 22 kts 249°
2026-05-06 03:06 41.80432 12.26441 25 ft 22 kts 250°
2026-05-06 03:06 41.80378 12.26243 25 ft 23 kts 250°
2026-05-06 03:06 41.80322 12.26039 25 ft 24 kts 250°
2026-05-06 03:07 41.80265 12.25829 25 ft 24 kts 250°
2026-05-06 03:07 41.80206 12.25615 27 ft 25 kts 249°
2026-05-06 03:07 41.80146 12.25398 27 ft 25 kts 250°
2026-05-06 03:07 41.80094 12.25184 24 ft 20 kts 264°
2026-05-06 03:08 41.80103 12.24995 27 ft 20 kts 272°
2026-05-06 03:08 41.80087 12.24817 24 ft 12 kts 252°
2026-05-06 03:08 41.80068 12.24788 24 ft 1 kts 198°
2026-05-06 03:08 41.80062 12.24787 24 ft 1 kts 190°
2026-05-06 03:09 41.80048 12.24783 24 ft 1 kts 193°
2026-05-06 03:09 41.80032 12.24777 25 ft 5 kts 197°
2026-05-06 03:09 41.80011 12.24751 26 ft 7 kts 226°
2026-05-06 03:09 41.79979 12.24703 24 ft 6 kts 232°
2026-05-06 03:10 41.79952 12.24663 24 ft 3 kts 213°
2026-05-06 03:10 41.79917 12.24641 26 ft 3 kts 197°
2026-05-06 03:10 41.79900 12.24639 25 ft 5 kts 180°
2026-05-06 03:10 41.79857 12.24651 26 ft 5 kts 162°
2026-05-06 03:11 41.79848 12.24655 24 ft 0 kts 162°